This is the latest recevied weather packets stored in our database for station/object DC1SK-6. If no packets are shown the sender has not sent any weather packets the latest 10 day(s).
| Time | Temp. | Humidity | Pressure | Rain* | Wind** | Luminosity | Snow |
|---|---|---|---|---|---|---|---|
| 1777450869 | 11.67° C | 52% | - | 0 mm | - | 641 W/m² | - |
| 1777450298 | 11.11° C | 51% | - | 0 mm | - | 649 W/m² | - |
| 1777449739 | 11.11° C | 53% | - | 0 mm | - | 599 W/m² | - |
| 1777449179 | 11.11° C | 53% | - | 0 mm | - | 587 W/m² | - |
| 1777448633 | 10.56° C | 50% | - | 0 mm | - | 556 W/m² | - |
| 1777448129 | 10.56° C | 51% | - | 0 mm | - | 503 W/m² | - |
| 1777447544 | 10° C | 51% | - | 0 mm | - | 449 W/m² | - |
| 1777446979 | 9.44° C | 54% | - | 0 mm | - | 446 W/m² | - |
| 1777446469 | 9.44° C | 54% | - | 0 mm | - | 357 W/m² | - |
| 1777445919 | 8.89° C | 54% | - | 0 mm | - | 329 W/m² | - |
| 1777445379 | 8.89° C | 55% | - | 0 mm | - | 321 W/m² | - |
| 1777444887 | 8.89° C | 54% | - | 0 mm | - | 255 W/m² | - |
| 1777444329 | 8.33° C | 56% | - | 0 mm | - | 222 W/m² | - |
| 1777443834 | 8.33° C | 56% | - | 0 mm | - | 202 W/m² | - |
| 1777443249 | 7.78° C | 56% | - | 0 mm | - | 180 W/m² | - |
| 1777442679 | 7.78° C | 57% | - | 0 mm | - | 151 W/m² | - |
| 1777442114 | 7.78° C | 57% | - | 0 mm | - | 127 W/m² | - |
| 1777441599 | 7.78° C | 58% | - | 0 mm | - | 124 W/m² | - |
| 1777441019 | 7.22° C | 59% | - | 0 mm | - | 96 W/m² | - |
| 1777440434 | 5.56° C | 63% | - | 0 mm | - | 85 W/m² | - |
| 1777439834 | 5.56° C | 63% | - | 0 mm | - | 31 W/m² | - |
| 1777439338 | 5.56° C | 63% | - | 0 mm | - | 30 W/m² | - |
| 1777438844 | 5.56° C | 63% | - | 0 mm | - | 26 W/m² | - |
| 1777438296 | 5.56° C | 63% | - | 0 mm | - | 17 W/m² | - |
| 1777437784 | 5.56° C | 63% | - | 0 mm | - | 17 W/m² | - |
* Rain latest hour (hover to see other rain measurements)
** Current wind speed in m/s (hover to see current wind gust speed)